Weather Roundup
Issued by NWS Springfield, MO

Home | Current Version | Previous Version | Text Only | Print | Product List | Glossary On
Versions: 1 2 3 4 5 6 7 8 9 10 11 12 13 14 15 16 17 18 19 20 21 22 23 24 25 26 27 28 29 30 31 32 33 34 35 36 37 38 39 40 41 42 43 44 45 46 47 48 49 50
000
NZUS99 KSGF 271257
HRRSGF

HOURLY WEATHER
NATIONAL WEATHER SERVICE SPRINGFIELD MO
800 AM CDT FRI MAY 27 2016

......SGF CWA......

CITY           SKY/WX    TMP DP  RH WIND       PRES   REMARKS
SPRINGFIELD    CLOUDY    70  66  87 S10       29.83R
JOPLIN         CLOUDY    64  60  87 SE9       29.80R
WEST PLAINS    CLOUDY    68  65  90 VRB7      29.88R
ROLLA          CLOUDY    67  65  93 SE15G22   29.82S
BRANSON        CLOUDY    70  66  88 SE9       29.85R

......SURROUNDING SGF CWA......

CITY           SKY/WX    TMP DP  RH WIND       PRES   REMARKS
CHANUTE        CLOUDY    63  59  87 SE8       29.76F
PARSONS        CLOUDY    64  60  87 VRB7      29.78F
COFFEYVILLE    CLOUDY    65  59  81 E7        29.78R
EMPORIA        PTSUNNY   59  58  96 S13       29.73R
HARRISON AR    CLOUDY    69  66  90 SE10      29.84R

......KANSAS AND MISSOURI......

CITY           SKY/WX    TMP DP  RH WIND       PRES   REMARKS
KANSAS CTY INT CLOUDY    63  60  90 E8        29.71R
SEDALIA          N/A     71  67  87 S18G25    29.79R
ST JOSEPH      MOSUNNY   64  61  90 SE7       29.72R
ST LOUIS       LGT RAIN  70  65  84 SE18      29.89S
WICHITA        CLOUDY    62  58  86 SE13      29.72R
TOPEKA         PTSUNNY   62  60  93 E9        29.69R
OLATHE         CLOUDY    60  59  96 SE13      29.74R

......TENNESSEE......

CITY           SKY/WX    TMP DP  RH WIND       PRES   REMARKS
MEMPHIS        CLOUDY    75  70  83 S12       29.94R
NASHVILLE      CLOUDY    74  63  68 SE7       30.05R

......ARKANSAS.......

CITY           SKY/WX    TMP DP  RH WIND       PRES   REMARKS
FAYETTEVILLE   CLOUDY    70  67  90 S8        29.82R
FT SMITH       CLOUDY    71  66  84 E6        29.79F
LITTLE ROCK    NOT AVBL

......OKLAHOMA.......

CITY           SKY/WX    TMP DP  RH WIND       PRES   REMARKS
TULSA          CLOUDY    71  66  84 S14       29.75R
PONCA CITY     CLOUDY    68  64  87 E18G29    29.66F
MCALESTER      LGT RAIN  69  65  86 SW18G26   29.80F
OKLAHOMA CITY  CLOUDY    66  63  90 S18G38    29.60F

......IOWA............

CITY           SKY/WX    TMP DP  RH WIND       PRES   REMARKS
DES MOINES     NOT AVBL
QUAD CITIES    CLOUDY    68  63  84 SE8       29.84R

......ILLINOIS........

CITY           SKY/WX    TMP DP  RH WIND       PRES   REMARKS
QUINCY         LGT RAIN  68  65  90 S12G22    29.83F
CHICAGO        CLOUDY    71  65  81 S10       29.89R




USA.gov is the U.S. government's official web portal to all federal, state and local government web resources and services.